TimePDT,TemperatureF,Dew PointF,Humidity,Sea Level PressureIn,VisibilityMPH,Wind Direction,Wind SpeedMPH,Gust SpeedMPH,PrecipitationIn,Events,Conditions,WindDirDegrees,DateUTC
12:56 AM,53.1,52.0,96,30.24,7.0,Calm,Calm,-,N/A,,Mostly Cloudy,0,2013-06-28 07:56:00
1:56 AM,53.1,53.1,100,30.23,7.0,Calm,Calm,-,N/A,,Mostly Cloudy,0,2013-06-28 08:56:00
2:56 AM,52.0,51.1,97,30.22,7.0,WSW,3.5,-,N/A,,Scattered Clouds,250,2013-06-28 09:56:00
3:17 AM,53.6,51.8,94,30.20,1.5,Calm,Calm,-,N/A,,Mostly Cloudy,0,2013-06-28 10:17:00
3:56 AM,53.1,52.0,96,30.20,0.5,Calm,Calm,-,N/A,Fog,Fog,0,2013-06-28 10:56:00
4:56 AM,52.0,52.0,100,30.20,0.1,Calm,Calm,-,N/A,Fog,Fog,0,2013-06-28 11:56:00
5:56 AM,53.1,52.0,96,30.20,0.1,Calm,Calm,-,N/A,Fog,Fog,0,2013-06-28 12:56:00
6:56 AM,53.1,52.0,96,30.19,0.1,Calm,Calm,-,N/A,Fog,Fog,0,2013-06-28 13:56:00
7:20 AM,53.6,53.6,100,30.17,1.2,Calm,Calm,-,N/A,,Overcast,0,2013-06-28 14:20:00
7:56 AM,53.1,52.0,96,30.17,1.2,NW,3.5,-,N/A,,Overcast,320,2013-06-28 14:56:00
8:42 AM,53.6,53.6,100,30.16,1.0,Calm,Calm,-,N/A,,Mostly Cloudy,0,2013-06-28 15:42:00
8:56 AM,53.1,52.0,96,30.17,1.0,West,3.5,-,N/A,,Mostly Cloudy,260,2013-06-28 15:56:00
9:56 AM,55.0,53.1,93,30.16,5.0,West,3.5,-,N/A,,Mostly Cloudy,270,2013-06-28 16:56:00
10:53 AM,53.6,51.8,94,30.14,0.2,West,4.6,-,N/A,,Overcast,280,2013-06-28 17:53:00
10:56 AM,54.0,52.0,93,30.15,0.2,West,4.6,-,N/A,,Overcast,280,2013-06-28 17:56:00
11:43 AM,55.4,53.6,94,30.14,0.2,WNW,3.5,-,N/A,,Mostly Cloudy,290,2013-06-28 18:43:00
11:56 AM,57.0,54.0,89,30.15,1.0,Calm,Calm,-,N/A,,Overcast,0,2013-06-28 18:56:00
12:56 PM,63.0,57.9,84,30.14,10.0,NW,3.5,-,N/A,,Overcast,320,2013-06-28 19:56:00
1:56 PM,64.0,59.0,84,30.12,10.0,NW,4.6,-,N/A,,Overcast,320,2013-06-28 20:56:00
2:56 PM,63.0,57.9,84,30.11,10.0,West,8.1,-,N/A,,Mostly Cloudy,270,2013-06-28 21:56:00
3:56 PM,61.0,57.0,87,30.11,9.0,WSW,8.1,-,N/A,,Mostly Cloudy,250,2013-06-28 22:56:00
4:56 PM,59.0,55.9,90,30.10,8.0,West,3.5,-,N/A,,Mostly Cloudy,280,2013-06-28 23:56:00
5:56 PM,62.1,57.0,84,30.10,10.0,West,4.6,-,N/A,,Mostly Cloudy,260,2013-06-29 00:56:00
6:56 PM,61.0,57.0,87,30.10,10.0,West,4.6,-,N/A,,Mostly Cloudy,260,2013-06-29 01:56:00
7:56 PM,60.1,55.9,86,30.11,10.0,Calm,Calm,-,N/A,,Mostly Cloudy,0,2013-06-29 02:56:00
8:56 PM,60.1,55.9,86,30.10,10.0,Calm,Calm,-,N/A,,Mostly Cloudy,0,2013-06-29 03:56:00
9:56 PM,57.9,55.9,93,30.11,10.0,Calm,Calm,-,N/A,,Mostly Cloudy,0,2013-06-29 04:56:00
10:56 PM,59.0,55.9,90,30.12,10.0,Calm,Calm,-,N/A,,Mostly Cloudy,0,2013-06-29 05:56:00
11:56 PM,60.1,57.0,90,30.11,10.0,Calm,Calm,-,N/A,,Mostly Cloudy,0,2013-06-29 06:56:00